Weather in Troitskoe

Russia / Omsk Oblast     54°51′57″N   73°18′08″E
temp.,
°C
wind,
m/s
gust,
m/s
humid.,
%
clouds,
%
prec.,
mm/h
press.,
hPa
HPBL,
m
29 july, thu
thu2900:00+14w2396100 3.6 100798
03:00+12wnw38941 0.4 1007209
06:00+10wnw37890 0.4 1008140
09:00+14nw45660 0.0 1009480
12:00+19nw45430 0.0 10101666
15:00+21wnw45345 0.0 10092177
18:00+21w45346 0.0 10092345
21:00+15wsw454953 0.0 101066
30 july, fri
fri3000:00+15w485288 0.0 1010208
03:00+15wsw365549 0.0 1010138
06:00+12wsw35688 0.0 101187
09:00+19wsw58456 0.0 1012572
12:00+22wsw793538 0.0 10122269
15:00+23wsw693596 0.0 10122760
18:00+25wsw693468 0.0 10112835
21:00+19ssw4751100 0.0 1011113
31 july, sat
sat3100:00+18s61345100 0.0 1010248
03:00+19sw41043100 0.0 1008284
06:00+19wsw81350100 0.1 1009962
09:00+17ssw497553 0.8 1009335
12:00+25sw8938100 0.8 10071567
15:00+28wsw683834 0.0 10062133
18:00+26wnw5743100 0.0 10071432
21:00+22nnw356276 0.0 1010112
1 august, sun
sun100:00+17nnw34910 0.0 101164
03:00+16nnw339498 0.0 101139
06:00+15n22955 0.0 101226
09:00+20nne21715 0.0 1013479
12:00+24wnw1253100 0.0 10111283
15:00+27wnw1343100 0.0 10101757
18:00+28ssw133810 0.0 10091975
21:00+22sse3356100 0.0 100834
2 august, mon
mon200:00+20sse4963100 0.0 1007164
03:00+19s347599 0.2 100546
06:00+17wnw399772 0.4 1006225
09:00+22nw57750 0.0 1007476
12:00+27wnw57451 0.0 10071672
15:00+28nw783310 0.0 10072848
18:00+28nw68350 0.0 10072608
21:00+24nw3447100 0.0 100873